Wind_Speed
43 43 42 44 45 45 47 47 48 48 49 51 51 50 50 51 51 51 51 52 54 54 56 57 57 58 58 57 57 57 58 58 58 57 58 58 58 58 58 59 59 59 58
42 43 42 43 44 45 46 47 47 48 49 50 51 51 51 52 53 52 52 53 53 54 56 57 58 59 59 58 58 58 59 59 60 59 59 59 59 59 59 59 59 59 59
41 41 42 42 42 43 44 46 47 48 48 49 49 50 49 50 52 52 53 53 54 54 55 56 57 57 59 60 60 60 60 60 61 61 60 60 61 60 60 60 60 60 59
41 41 43 43 42 42 43 45 47 48 48 49 50 50 51 51 51 52 53 54 54 55 55 55 56 57 59 60 61 61 61 61 61 61 60 60 60 60 60 61 60 60 59
41 41 42 43 43 43 44 46 47 48 49 49 50 50 52 53 53 53 53 53 54 55 56 57 57 58 59 60 61 61 61 61 61 60 60 60 59 60 60 60 60 60 59
40 42 43 44 44 44 45 45 45 47 48 50 51 51 52 53 54 55 55 55 55 56 57 58 59 60 60 60 60 60 60 60 61 60 59 59 59 59 59 60 60 60 60
40 42 43 43 44 45 45 45 46 46 48 50 51 51 52 53 54 55 55 56 56 57 58 58 59 60 60 60 60 60 59 59 60 60 60 59 59 58 59 60 60 61 59
41 41 42 43 43 43 44 46 46 47 48 48 50 51 52 53 54 55 56 56 57 57 58 58 58 58 58 59 59 59 59 59 59 59 59 59 59 60 60 59 60 60 60
40 41 41 42 43 44 44 45 46 46 47 48 49 49 50 51 53 54 55 56 56 56 56 56 56 57 57 57 58 58 58 58 58 58 58 58 59 59 59 59 58 59 59
39 40 40 41 42 42 43 44 44 45 45 46 47 49 50 51 52 53 54 54 54 54 55 55 55 55 56 57 57 57 58 58 58 57 57 58 59 59 59 59 58 58 58
38 38 39 40 41 41 42 42 43 44 45 46 47 47 48 49 50 51 51 52 53 53 54 54 54 54 55 55 57 57 57 58 58 59 59 59 59 59 59 59 59 59 59
37 38 38 39 41 41 41 42 43 44 44 45 45 46 47 47 48 49 50 50 51 51 51 52 53 53 53 53 55 56 56 57 58 58 58 59 59 59 59 59 59 59 58
38 38 39 39 40 40 41 42 42 43 43 43 44 45 45 46 46 47 48 49 50 50 49 49 50 51 52 52 52 53 53 54 55 55 55 56 56 58 59 59 59 58 57
38 39 39 39 40 41 41 41 41 41 41 42 42 43 43 44 45 46 46 47 48 48 48 48 48 49 49 50 50 50 51 52 52 53 53 54 55 56 57 57 57 57 56
38 37 37 38 39 39 39 39 39 39 39 39 40 40 41 41 42 43 44 44 46 46 47 47 47 48 49 49 48 48 49 49 51 51 52 52 52 53 53 54 55 55 55
35 34 35 35 36 36 36 36 37 38 38 38 38 38 38 39 39 40 42 43 44 44 45 46 46 46 47 47 47 46 47 47 48 49 50 50 50 50 51 52 52 53 53
33 33 33 33 33 34 34 35 35 36 36 37 37 37 37 37 37 38 39 40 41 42 43 43 43 44 44 45 45 46 47 47 47 48 48 49 49 48 48 48 48 49 50
32 32 32 33 33 34 34 34 35 35 35 36 37 37 37 36 36 37 38 39 39 39 39 39 40 40 41 41 42 43 43 44 45 45 46 46 46 45 45 45 45 46 46
32 32 32 33 33 34 35 35 35 35 35 36 36 37 37 37 37 37 37 37 37 37 37 37 38 38 39 40 40 40 40 41 42 42 43 43 43 42 42 42 42 42 43
32 32 33 33 34 34 35 36 36 35 35 35 35 35 35 36 35 35 35 35 34 35 35 35 36 36 37 37 38 38 39 39 39 39 39 39 40 40 39 39 39 39 39
32 33 34 34 34 35 35 35 35 35 34 34 34 34 33 33 33 33 33 33 33 33 33 33 33 33 33 34 35 35 36 36 36 36 36 36 37 37 37 37 37 36 36
33 34 34 34 35 34 34 34 34 33 33 33 32 32 32 31 31 31 31 31 31 31 31 31 31 31 31 31 32 32 32 32 32 32 32 33 34 34 34 34 35 35 34
34 34 34 34 34 33 33 32 32 32 31 31 31 31 31 31 30 30 29 29 29 28 28 28 27 27 27 27 27 27 28 28 29 29 29 29 30 30 31 31 31 31 31
34 34 34 34 33 33 33 32 31 31 31 31 31 31 30 30 29 28 27 27 26 26 25 25 25 25 24 24 25 25 26 26 26 26 26 27 27 27 28 29 29 30 30
34 34 34 34 34 34 33 32 32 32 31 31 31 30 29 28 27 26 26 25 25 25 24 24 24 24 23 23 24 24 24 24 24 24 25 25 25 25 26 27 27 28 28
35 35 35 34 34 33 33 32 32 31 30 30 29 28 27 26 25 25 25 25 24 24 23 23 23 22 22 22 22 22 22 22 22 23 23 23 23 24 24 25 25 25 25
Wind_Direction
270 271 271 270 269 268 265 264 262 262 262 261 261 261 260 259 260 260 260 261 261 260 260 259 260 259 258 258 259 259 259 259 259 258 259 259 259 258 258 258 257 257 258
270 271 270 270 270 269 267 264 263 264 264 263 261 261 261 261 260 261 261 262 262 262 261 260 260 260 259 259 259 259 259 260 260 259 259 258 258 258 258 258 258 257 258
271 270 271 272 271 269 268 266 265 266 265 263 262 262 262 262 261 261 262 262 262 262 262 261 260 260 260 260 260 260 260 260 260 259 259 258 258 258 258 258 258 257 258
270 271 272 272 271 270 269 269 268 267 266 263 262 262 262 263 263 263 263 263 263 263 263 262 262 262 261 260 260 260 260 260 259 259 259 258 259 259 258 258 257 257 258
271 271 272 272 271 272 272 270 270 269 267 265 264 263 263 263 263 264 263 263 263 263 264 263 263 263 262 261 260 260 260 260 260 259 259 259 259 259 258 258 257 257 257
271 272 272 272 271 273 273 272 272 270 267 266 266 265 264 263 263 264 264 263 264 265 265 265 265 264 263 261 260 260 259 260 259 259 259 259 259 258 258 258 258 258 258
273 273 274 274 273 273 273 273 273 271 268 268 266 265 264 264 264 265 265 265 265 265 266 266 265 264 264 262 260 259 259 260 259 259 259 258 258 258 259 259 259 258 258
275 275 275 275 275 273 274 274 273 272 271 270 268 267 266 265 265 266 266 266 266 267 267 266 266 264 264 263 261 260 260 260 260 259 259 259 259 259 260 260 260 259 258
278 278 277 277 275 273 274 275 274 275 273 272 271 269 268 267 267 267 267 268 268 267 267 266 265 264 263 263 261 260 260 260 260 260 259 258 258 259 260 260 261 260 259
281 280 279 278 277 276 276 276 276 276 275 274 273 272 271 270 269 269 268 268 268 268 267 267 266 265 264 263 262 261 260 260 259 259 259 259 259 259 259 260 260 261 260
282 281 280 279 279 279 279 279 278 278 277 276 274 273 273 271 270 270 269 269 270 269 268 267 267 267 266 265 264 263 262 261 260 260 260 260 260 259 259 259 260 260 260
283 282 282 282 283 283 283 282 281 281 279 278 276 274 274 273 271 270 270 271 271 271 270 268 268 267 267 267 266 265 264 263 262 261 260 259 259 259 259 259 259 259 260
284 284 284 285 286 286 286 285 284 283 281 279 277 276 275 274 273 272 272 272 272 271 270 269 268 267 268 267 266 264 263 262 261 260 260 259 259 259 258 258 258 259 259
286 286 285 286 286 287 287 286 285 284 283 282 280 278 276 276 275 274 273 272 272 271 269 269 268 267 267 266 265 264 263 261 260 259 259 259 260 259 259 258 258 259 259
288 287 287 287 287 287 287 286 286 286 286 285 283 281 279 278 277 276 274 273 273 272 271 269 269 267 266 266 266 265 264 262 261 260 260 259 259 259 259 259 258 259 258
289 289 290 290 290 288 288 288 287 288 287 286 285 283 282 280 278 277 277 276 275 274 272 271 270 268 266 266 266 265 264 264 263 262 260 260 260 260 260 259 259 259 259
291 291 291 291 291 291 291 290 289 289 288 287 285 284 283 281 279 278 278 278 277 276 275 273 271 269 267 266 265 265 265 265 264 263 261 261 261 261 260 259 259 259 259
293 292 292 292 292 293 293 293 292 291 289 288 287 285 283 281 280 279 279 278 278 278 277 275 273 271 270 269 267 266 266 265 264 263 262 261 260 259 259 258 258 259 259
294 294 294 294 294 294 294 295 295 293 291 289 288 286 284 282 281 281 280 280 279 278 277 276 274 273 271 270 269 268 267 266 266 265 263 260 257 256 257 257 257 258 258
296 296 296 296 296 296 296 296 296 294 292 291 289 287 285 284 282 282 281 281 280 279 278 277 276 274 272 271 270 268 267 266 266 265 262 258 255 255 255 255 256 257 258
296 296 297 297 297 297 297 297 296 295 293 292 291 290 287 285 283 282 281 281 280 279 278 278 276 274 272 271 270 268 267 266 265 263 261 256 254 253 253 254 255 256 256
296 296 296 296 297 297 298 298 297 295 294 293 293 291 290 287 285 283 283 282 281 280 278 278 276 274 273 272 271 268 267 266 264 262 259 256 254 253 253 254 253 253 253
298 297 297 297 297 298 298 298 297 296 295 295 294 292 291 289 287 285 284 283 282 280 278 277 276 274 273 271 271 269 268 266 264 262 260 258 255 254 253 251 250 251 251
299 299 298 298 299 299 298 298 297 297 297 296 295 294 292 290 288 286 285 284 283 281 279 277 275 273 271 269 268 268 267 266 265 264 261 260 257 254 251 250 250 250 250
300 300 300 300 300 299 297 297 296 296 296 296 296 295 293 291 289 286 284 283 282 280 279 278 276 274 271 269 269 269 268 267 265 262 261 259 256 253 250 248 248 248 250
300 300 299 299 299 298 297 296 295 296 295 295 295 295 293 291 289 287 284 282 280 278 277 276 274 273 272 272 271 272 271 269 265 262 260 257 255 252 249 247 246 246 249
Height
5582 5581 5579 5578 5578 5577 5577 5578 5579 5580 5581 5582 5583 5584 5585 5586 5587 5589 5591 5592 5594 5596 5597 5599 5602 5603 5606 5608 5610 5612 5614 5616 5619 5624 5625 5627 5628 5630 5632 5634 5637 5639 5642
5570 5569 5568 5567 5566 5565 5565 5566 5567 5567 5568 5569 5570 5571 5572 5573 5574 5575 5577 5578 5579 5581 5582 5584 5586 5587 5589 5591 5593 5595 5597 5599 5601 5605 5609 5610 5611 5613 5615 5617 5620 5622 5625
5559 5558 5556 5555 5554 5554 5553 5554 5554 5555 5556 5556 5557 5558 5559 5559 5560 5561 5562 5563 5564 5566 5567 5568 5570 5571 5573 5575 5577 5579 5580 5582 5583 5586 5590 5592 5594 5596 5598 5600 5603 5606 5609
5547 5546 5545 5544 5543 5542 5542 5542 5542 5542 5543 5543 5544 5544 5545 5545 5546 5546 5547 5548 5549 5551 5552 5552 5554 5555 5556 5558 5559 5561 5562 5564 5566 5568 5572 5575 5577 5579 5581 5583 5586 5589 5592
5536 5535 5534 5533 5532 5531 5530 5530 5529 5529 5529 5530 5530 5531 5531 5531 5532 5532 5532 5533 5534 5535 5536 5536 5537 5538 5539 5540 5542 5543 5544 5546 5548 5551 5554 5557 5560 5561 5564 5566 5569 5573 5576
5524 5523 5522 5521 5520 5518 5518 5517 5516 5516 5516 5516 5516 5516 5516 5517 5517 5517 5517 5517 5518 5519 5519 5520 5520 5521 5522 5523 5524 5525 5527 5528 5531 5533 5536 5539 5543 5544 5546 5549 5552 5556 5561
5513 5511 5510 5508 5507 5506 5505 5504 5503 5502 5502 5502 5501 5501 5502 5501 5501 5501 5501 5501 5502 5502 5503 5503 5503 5504 5504 5505 5506 5507 5509 5511 5514 5516 5519 5522 5525 5527 5529 5532 5534 5538 5542
5501 5500 5498 5496 5494 5493 5492 5491 5490 5489 5488 5487 5486 5486 5486 5486 5485 5485 5484 5485 5485 5486 5486 5486 5486 5486 5486 5487 5489 5491 5492 5494 5497 5499 5503 5506 5507 5509 5511 5514 5517 5520 5525
5490 5488 5486 5484 5482 5481 5479 5478 5476 5475 5474 5472 5472 5471 5471 5471 5469 5469 5468 5468 5468 5469 5469 5468 5468 5469 5470 5470 5472 5474 5476 5478 5479 5482 5485 5487 5489 5491 5493 5496 5499 5502 5507
5478 5476 5474 5472 5470 5468 5466 5465 5463 5461 5459 5458 5457 5456 5456 5455 5454 5453 5452 5452 5452 5452 5452 5452 5452 5452 5453 5453 5454 5456 5459 5462 5463 5465 5467 5470 5472 5474 5477 5479 5482 5485 5489
5467 5464 5462 5460 5458 5456 5454 5452 5450 5448 5446 5445 5444 5442 5441 5440 5439 5437 5436 5435 5435 5435 5435 5435 5435 5436 5436 5437 5437 5439 5442 5444 5446 5448 5450 5453 5456 5458 5461 5463 5465 5468 5471
5455 5453 5451 5449 5446 5444 5441 5439 5436 5434 5432 5430 5429 5428 5426 5424 5423 5422 5420 5419 5419 5418 5419 5419 5420 5420 5421 5421 5421 5423 5424 5426 5428 5430 5433 5436 5439 5442 5444 5447 5449 5451 5454
5444 5442 5439 5437 5434 5432 5429 5426 5424 5421 5419 5417 5415 5413 5412 5410 5408 5407 5406 5405 5403 5403 5403 5403 5404 5404 5405 5405 5406 5406 5407 5409 5410 5413 5416 5419 5422 5424 5426 5429 5432 5434 5437
5433 5430 5428 5425 5423 5420 5417 5414 5411 5408 5405 5403 5401 5399 5397 5396 5394 5393 5391 5390 5389 5388 5388 5388 5389 5389 5389 5389 5390 5391 5391 5393 5395 5397 5400 5402 5404 5406 5409 5412 5415 5418 5421
5422 5419 5416 5413 5411 5408 5405 5402 5399 5396 5393 5390 5388 5386 5384 5383 5380 5378 5376 5376 5374 5374 5373 5373 5374 5374 5374 5374 5375 5376 5377 5378 5380 5382 5384 5386 5388 5390 5393 5396 5398 5401 5405
5411 5408 5405 5402 5399 5396 5394 5391 5387 5384 5381 5378 5376 5374 5371 5369 5367 5365 5364 5362 5360 5359 5359 5359 5359 5359 5360 5360 5361 5362 5363 5364 5365 5367 5369 5371 5373 5375 5378 5381 5383 5386 5389
5401 5398 5395 5392 5389 5386 5383 5380 5377 5374 5370 5367 5364 5362 5359 5357 5355 5353 5351 5349 5348 5346 5345 5346 5346 5346 5347 5347 5348 5349 5350 5351 5351 5353 5354 5356 5358 5360 5363 5366 5368 5371 5374
5391 5388 5385 5382 5379 5376 5373 5369 5366 5363 5360 5356 5353 5350 5348 5345 5343 5341 5339 5337 5336 5334 5334 5333 5334 5334 5334 5334 5335 5335 5336 5337 5338 5339 5340 5342 5344 5346 5349 5352 5354 5357 5359
5381 5378 5375 5372 5369 5366 5362 5359 5355 5352 5349 5346 5343 5339 5336 5334 5332 5330 5327 5326 5324 5323 5322 5322 5322 5322 5322 5322 5322 5323 5323 5324 5325 5326 5327 5329 5331 5334 5336 5339 5341 5344 5346
5372 5368 5365 5362 5359 5355 5352 5348 5345 5341 5338 5335 5332 5329 5325 5323 5321 5319 5317 5315 5314 5313 5312 5311 5311 5310 5310 5310 5311 5311 5312 5312 5313 5314 5315 5317 5319 5322 5325 5327 5330 5332 5334
5362 5359 5355 5352 5348 5345 5341 5337 5334 5330 5327 5324 5321 5318 5315 5313 5311 5309 5307 5305 5304 5302 5301 5300 5300 5299 5299 5300 5300 5300 5301 5301 5302 5303 5304 5306 5308 5311 5314 5316 5319 5321 5323
5353 5349 5345 5342 5338 5334 5331 5327 5323 5320 5317 5314 5311 5308 5305 5303 5301 5299 5297 5296 5294 5293 5292 5291 5290 5289 5289 5290 5290 5290 5291 5291 5292 5293 5294 5296 5298 5301 5303 5306 5308 5310 5313
5343 5339 5336 5332 5328 5324 5321 5317 5314 5310 5307 5304 5301 5298 5296 5293 5291 5290 5288 5286 5285 5284 5283 5282 5282 5281 5281 5281 5281 5282 5282 5283 5284 5284 5286 5287 5289 5291 5294 5296 5298 5301 5303
5333 5329 5326 5322 5318 5314 5311 5307 5304 5301 5298 5295 5292 5289 5287 5284 5282 5280 5279 5278 5277 5276 5275 5274 5274 5274 5274 5273 5273 5274 5274 5274 5275 5276 5277 5279 5281 5283 5285 5288 5290 5292 5295
5324 5320 5316 5312 5308 5305 5301 5298 5295 5292 5289 5286 5283 5280 5278 5275 5274 5272 5271 5270 5269 5268 5267 5267 5266 5266 5266 5266 5266 5266 5266 5267 5267 5268 5270 5271 5273 5275 5277 5280 5282 5285 5287
5314 5310 5306 5302 5298 5295 5291 5288 5285 5282 5280 5277 5274 5272 5269 5267 5265 5264 5263 5262 5261 5261 5260 5260 5259 5259 5259 5259 5259 5259 5259 5260 5260 5261 5263 5264 5266 5268 5270 5273 5275 5277 5280